Location: Mahannah Oil Field
(37.4664°N, 96.6003°W)
Time: 04:44:57
(UTC+00:00)

Transit 2A Rocket - Pass Details

Date: 26 January 2021
Orbit: 594 x 909 km, 66.7° (Epoch: 25 February)

Event Time Altitude Azimuth Distance (km) Brightness Sun altitude
Rises 03:17:48 0° 332° (NNW) 2,879 - -42.5°
Reaches altitude 10° 03:20:05 10° 332° (NNW) 1,950 - -42.9°
Maximum altitude 03:24:25 89° 58° (ENE) 599 - -43.8°
Drops below altitude 10° 03:28:43 10° 153° (SSE) 1,927 - -44.6°
Sets 03:30:58 0° 153° (SSE) 2,842 - -45.0°
